Location: Borowce
(50.8255°N, 19.6209°E)
Time: 22:47:22
(UTC+00:00)

NOSS 2-1 (E) - Pass Details

Date: 19 May 2025
Orbit: 385 x 1749 km, 63.3° (Epoch: 07 May)

Event Time Altitude Azimuth Distance (km) Brightness Sun altitude
Exits shadow 22:21:20 41° 254° (WSW) 614 3.4 -19.1°
Maximum altitude 22:22:13 62° 316° (NW) 462 3.1 -19.1°
Drops below altitude 10° 22:25:13 10° 39° (NE) 1,423 6.1 -19.1°
Sets 22:27:12 0° 43° (NE) 2,286 7.2 -19.2°
